Regional Weather Roundup
Issued by NWS Memphis, TN

Home | Current Version | Previous Version | Text Only | Print | Product List | Glossary On
Versions: 1 2 3 4 5 6 7 8 9 10 11 12 13 14 15 16 17 18 19 20 21 22 23 24 25 26 27 28 29 30 31 32 33 34 35 36 37 38 39 40 41 42 43 44 45 46 47 48 49 50
000
ASUS44 KMEG 280210
RWRMEG
MEMPHIS CWA HOURLY WEATHER ROUNDUP
NATIONAL WEATHER SERVICE MEMPHIS TN
900 PM CDT WED MAY 27 2015

...WEST TENNESSEE...

CITY           SKY/WX    TMP DP  RH WIND       PRES   REMARKS
MEMPHIS INTL   CLOUDY    73  66  78 SE7       30.09S
NWS MEMPHIS      N/A     72 N/A N/A MISG        N/A
JACKSON        CLOUDY    71  66  84 S5        30.13R
LEXINGTON      CLEAR     66  66 100 CALM      30.14R
DYERSBURG      MOCLDY    72  55  56 CALM      30.11S
PARIS          CLEAR     66  66 100 SE3       30.15R


...EASTERN ARKANSAS...

CITY           SKY/WX    TMP DP  RH WIND       PRES   REMARKS
JONESBORO      MOCLDY    72  68  87 SE5       30.08R
WEST MEMPHIS   CLOUDY    70  70 100 CALM      30.08R
BATESVILLE     CLEAR     73  66  78 SE6       30.08R
NEWPORT        PTCLDY    74  70  87 S9        30.09R
WALNUT RIDGE   PTCLDY    73  66  78 SE12      30.07S
BLYTHEVILLE    CLOUDY    72  70  93 SE3       30.10R
SEARCY         CLEAR     74  70  87 SE8       30.08R
STUTTGART      CLEAR     73  68  83 SE7       30.08R
PINE BLUFF     CLEAR     74  69  85 SE6       30.07R
MONTICELLO     PTCLDY    73  72  96 SE3       30.08R


...NORTH MISSISSIPPI...

CITY           SKY/WX    TMP DP  RH WIND       PRES   REMARKS
TUPELO         CLOUDY    68  65  90 E6        30.11F
OXFORD         CLOUDY    66  64  94 E5        30.12R
OLIVE BRANCH   CLEAR     70  70 100 CALM      30.11R
TUNICA         CLOUDY    70  68  94 E3        30.09F
CLARKSDALE       N/A     72  72 100 CALM      30.09S
CORINTH        CLOUDY    68  66  94 SE5       30.13S
GREENWOOD      MOCLDY    70  67  90 SW5       30.10R
COLUMBUS       CLOUDY    70 N/A N/A SE16      30.11R
STARKVILLE     MOCLDY    68  68 100 SE7       30.13R
GOLDEN TRIANGL CLOUDY    70  66  88 SE13      30.12R


...SOUTHEAST MISSOURI...

CITY           SKY/WX    TMP DP  RH WIND       PRES   REMARKS
WEST PLAINS    CLOUDY    70  64  81 CALM      30.11R
POPLAR BLUFF   MOCLDY    73  69  87 SE5       30.07R
CAPE GIRARDEAU MOCLDY    72  70  93 SE7       30.09R


...NORTHWEST ALABAMA...

CITY           SKY/WX    TMP DP  RH WIND       PRES   REMARKS
MUSCLE SHOALS  RAIN      68  66  93 SE12      30.19R


...MIDDLE TENNESSEE...

CITY           SKY/WX    TMP DP  RH WIND       PRES   REMARKS
NASHVILLE      CLOUDY    69  68  96 CALM      30.18R
CLARKSVILLE    CLOUDY    70  67  90 S5        30.15R
COLUMBIA       CLOUDY    68  66  94 S7        30.17R


...WESTERN KENTUCKY...

CITY           SKY/WX    TMP DP  RH WIND       PRES   REMARKS
PADUCAH        CLOUDY    70  66  87 S5        30.10R
FORT CAMPBELL  CLOUDY    71  67  90 S3        30.15R


...CENTRAL ARKANSAS...

CITY           SKY/WX    TMP DP  RH WIND       PRES   REMARKS
LITTLE ROCK    PTCLDY    76  67  73 SE3       30.06R


SKY/WX REPORTED AS FAIR MEANS FEW OR NO CLOUDS BELOW
12 THOUSAND FEET.



USA.gov is the U.S. government's official web portal to all federal, state and local government web resources and services.